Weather History for Vernal, UT

Change the Weather History Date:

Monday, February 17, 2014

  Actual Average Record
Temperature  
Mean Temperature 34 °F 27 °F  
Max Temperature 46 °F 37 °F 58 °F (1972)
Min Temperature 22 °F 17 °F -12 °F (1937)
Degree Days  
Heating Degree Days 31 38  
Month to date heating degree days 658 705  
Since 1 July heating degree days 5502 5100  
Cooling Degree Days 0 0  
Month to date cooling degree days 0 0  
Year to date cooling degree days 0 0  
Moisture  
Dew Point 19 °F    
Average Humidity 56    
Maximum Humidity 74    
Minimum Humidity 37    
Precipitation  
Precipitation 0.00 in 0.02 in 0.40 in (1945)
Month to date precipitation 0.09 0.30  
Year to date precipitation 0.32 0.80  
Sea Level Pressure  
Sea Level Pressure 30.14 in    
Wind  
Wind Speed 5 mph (West)    
Max Wind Speed 12 mph    
Max Gust Speed 13 mph    
Visibility 10 miles    
Events      
T = Trace of Precipitation, MM = Missing Value Source: NWS Daily Summary

Daily Weather History Graph

Daily Weather History Graph

Search for Another Location

Airport:

Trip Planner

Search our weather history database for the weather conditions in past years. The results will help you decide how hot, cold, wet, or windy it might be!

Date:

Astronomy

Feb. 17, 2014 Rise Set
Actual Time 7:08 AM MST 5:55 PM MST
Civil Twilight 6:40 AM MST 6:23 PM MST
Nautical Twilight 6:09 AM MST 6:55 PM MST
Astronomical Twilight 5:37 AM MST 7:27 PM MST
Moon 8:54 PM MST (2/17) 8:10 AM MST (2/17)
Length of Visible Light 11h 42m
Length of Day
10h 47m
Waning Gibbous, 93% of the Moon is Illuminated
Feb 17
Waning Gibbous
Feb 22
Last Quarter
Mar 1
New
Mar 8
First Quarter
Mar 16
Full

Hourly Weather History & Observations

Time (MST) Temp. Windchill Dew Point Humidity Pressure Visibility Wind Dir Wind Speed Gust Speed Precip Events Conditions
12:53 AM 26.1 °F 18.4 °F 18.0 °F 71% 30.19 in 10.0 mi NW 6.9 mph - N/A   Clear
1:53 AM 28.0 °F 24.2 °F 19.0 °F 69% 30.17 in 10.0 mi NW 3.5 mph - N/A   Clear
2:53 AM 26.1 °F 20.5 °F 18.0 °F 71% 30.20 in 10.0 mi NNW 4.6 mph - N/A   Clear
3:53 AM 24.1 °F 18.2 °F 17.1 °F 75% 30.22 in 10.0 mi WNW 4.6 mph - N/A   Clear
4:53 AM 23.0 °F 18.4 °F 16.0 °F 74% 30.22 in 10.0 mi West 3.5 mph - N/A   Clear
5:53 AM 25.0 °F - 14.0 °F 63% 30.25 in 10.0 mi Calm Calm - N/A   Clear
6:53 AM 24.1 °F 19.7 °F 14.0 °F 65% 30.28 in 10.0 mi WNW 3.5 mph - N/A   Clear
7:53 AM 26.1 °F 18.4 °F 15.1 °F 63% 30.30 in 10.0 mi NW 6.9 mph - N/A   Clear
8:53 AM 32.0 °F - 15.1 °F 50% 30.28 in 10.0 mi Calm Calm - N/A   Clear
9:53 AM 37.0 °F - 16.0 °F 42% 30.26 in 10.0 mi Calm Calm - N/A   Clear
10:53 AM 39.9 °F 35.1 °F 17.1 °F 40% 30.24 in 10.0 mi South 6.9 mph - N/A   Clear
11:53 AM 41.0 °F 36.4 °F 19.0 °F 41% 30.19 in 10.0 mi SSE 6.9 mph - N/A   Clear
12:53 PM 42.1 °F 40.2 °F 19.0 °F 40% 30.16 in 10.0 mi South 3.5 mph - N/A   Clear
1:53 PM 44.1 °F 42.5 °F 19.0 °F 37% 30.10 in 10.0 mi Variable 3.5 mph - N/A   Clear
2:53 PM 44.1 °F 39.0 °F 21.0 °F 40% 30.07 in 10.0 mi SSE 9.2 mph - N/A   Clear
3:53 PM 45.0 °F 40.1 °F 21.9 °F 40% 30.05 in 10.0 mi SSE 9.2 mph - N/A   Clear
4:53 PM 43.0 °F 38.2 °F 21.0 °F 42% 30.04 in 10.0 mi SSE 8.1 mph - N/A   Clear
5:53 PM 39.9 °F 36.7 °F 21.0 °F 47% 30.04 in 10.0 mi ENE 4.6 mph - N/A   Clear
6:53 PM 37.0 °F 34.5 °F 21.0 °F 52% 30.05 in 10.0 mi NW 3.5 mph - N/A   Clear
7:53 PM 34.0 °F 28.0 °F 21.9 °F 61% 30.05 in 10.0 mi WNW 6.9 mph - N/A   Clear
8:53 PM 33.1 °F 26.9 °F 21.9 °F 64% 30.03 in 10.0 mi West 6.9 mph - N/A   Clear
9:53 PM 30.9 °F 24.3 °F 21.0 °F 67% 30.01 in 10.0 mi West 6.9 mph - N/A   Clear
10:53 PM 32.0 °F - 19.9 °F 61% 29.97 in 10.0 mi Calm Calm - N/A   Clear
11:53 PM 30.0 °F 24.1 °F 19.0 °F 64% 29.96 in 10.0 mi WNW 5.8 mph - N/A   Clear